Date String (YYYY-MM-DD hh:mm:ss) UTC,Instrument flags,Ambient pressure (hPa),Sample flow (lpm),Bypass flow (lpm),Sample temperature (°C),Ambient temperature (°C),ASC tube jacket temperature (°C),LED temperature (°C),Box temperature (°C),Sample RH (%),Span deviation,Mass concentration (μg/m³),Mass concentration (μg/m³),Mass concentration (μg/m³)
DateTimeUTC,F1_M11,P_M11,Q1_M11,Q2_M11,T1_M11,T2_M11,T3_M11,T4_M11,T5_M11,U1_M11,ZSPAN_M11,X0_M11,X2_M11,X1_M11
2023-02-11 17:00:00,,0826.1,5.00,0.00,23.1,22.0,00.0,31.8,25.0,13.5,0000.0,0007.69,0003.18,0002.59
2023-02-11 17:01:00,,0825.8,4.99,0.00,23.1,22.0,00.0,31.8,25.0,13.9,0000.0,0007.75,0003.24,0002.73
2023-02-11 17:02:00,,0825.9,4.99,0.00,23.1,22.0,00.0,31.8,25.0,14.2,0000.0,0007.77,0003.30,0002.85
2023-02-11 17:03:00,,0825.9,5.02,0.00,23.1,22.1,00.0,31.8,25.0,14.5,0000.0,0007.88,0003.38,0002.95
2023-02-11 17:04:00,,0825.7,4.98,0.00,23.2,22.1,00.0,31.8,25.0,14.8,0000.0,0007.99,0003.46,0003.07
2023-02-11 17:05:00,,0825.7,5.02,0.00,23.2,22.1,00.0,31.9,25.1,15.2,0000.0,0008.10,0003.54,0003.17
2023-02-11 17:06:00,,0825.7,5.01,0.00,23.2,22.1,00.0,31.9,25.1,14.9,0000.0,0009.00,0003.60,0003.22
2023-02-11 17:07:00,,0825.9,5.02,0.00,23.2,22.1,00.0,31.9,25.1,14.7,0000.0,0008.73,0003.65,0003.26
2023-02-11 17:08:00,,0825.8,4.99,0.00,23.2,22.1,00.0,31.9,25.1,14.9,0000.0,0009.18,0003.71,0003.30
2023-02-11 17:09:00,,0825.9,4.97,0.00,23.2,22.1,00.0,31.9,25.1,14.9,0000.0,0009.34,0003.78,0003.33
2023-02-11 17:10:00,,0826.0,5.01,0.00,23.3,22.2,00.0,31.9,25.1,14.6,0000.0,0009.87,0003.82,0003.35
2023-02-11 17:11:00,,0825.9,4.98,0.00,23.3,22.2,00.0,32.0,25.1,14.3,0000.0,0010.93,0003.87,0003.38
2023-02-11 17:12:00,,0825.8,4.99,0.00,23.3,22.2,00.0,32.0,25.1,14.2,0000.0,0010.89,0003.89,0003.39
2023-02-11 17:13:00,,0825.8,4.93,0.00,23.3,22.2,00.0,32.0,25.2,14.4,0000.0,0010.92,0003.89,0003.41
2023-02-11 17:14:00,,0825.9,4.99,0.00,23.3,22.2,00.0,32.0,25.2,14.1,0000.0,0011.09,0003.86,0003.41
2023-02-11 17:15:00,,0826.0,5.03,0.00,23.3,22.2,00.0,32.0,25.2,14.0,0000.0,0011.41,0003.87,0003.41
2023-02-11 17:16:00,,0826.2,5.05,0.00,23.3,22.2,00.0,32.0,25.2,13.5,0000.0,0011.33,0003.85,0003.39
2023-02-11 17:17:00,,0825.9,5.00,0.00,23.3,22.2,00.0,32.0,25.2,14.1,0000.0,0010.60,0003.85,0003.39
2023-02-11 17:18:00,,0825.9,5.01,0.00,23.3,22.2,00.0,32.1,25.2,14.1,0000.0,0009.97,0003.86,0003.40
2023-02-11 17:19:00,,0825.8,5.02,0.00,23.4,22.2,00.0,32.1,25.2,14.2,0000.0,0009.83,0003.87,0003.42
2023-02-11 17:20:00,,0825.8,4.99,0.00,23.4,22.2,00.0,32.1,25.2,14.0,0000.0,0009.93,0003.87,0003.44
2023-02-11 17:21:00,,0825.8,5.02,0.00,23.4,22.2,00.0,32.1,25.2,13.9,0000.0,0009.82,0003.90,0003.46
2023-02-11 17:22:00,,0825.8,5.01,0.00,23.4,22.2,00.0,32.1,25.3,13.6,0000.0,0008.74,0003.94,0003.48
2023-02-11 17:23:00,,0825.8,4.99,0.00,23.4,22.2,00.0,32.1,25.3,13.5,0000.0,0008.70,0003.96,0003.50
2023-02-11 17:24:00,,0826.0,5.03,0.00,23.4,22.3,00.0,32.1,25.3,13.6,0000.0,0008.74,0003.99,0003.52
2023-02-11 17:25:00,,0825.9,5.03,0.00,23.4,22.3,00.0,32.1,25.3,13.0,0000.0,0008.81,0004.03,0003.53
2023-02-11 17:26:00,,0826.2,4.98,0.00,23.4,22.3,00.0,32.1,25.3,13.1,0000.0,0008.37,0004.02,0003.54
2023-02-11 17:27:00,,0826.1,4.99,0.00,23.5,22.3,00.0,32.2,25.3,12.9,0000.0,0008.92,0004.04,0003.55
2023-02-11 17:28:00,,0825.8,5.00,0.00,23.5,22.3,00.0,32.2,25.3,12.8,0000.0,0009.37,0004.07,0003.57
2023-02-11 17:29:00,,0825.9,5.02,0.00,23.5,22.3,00.0,32.2,25.3,12.8,0000.0,0009.45,0004.10,0003.56
2023-02-11 17:30:00,,0826.1,5.00,0.00,23.5,22.3,00.0,32.2,25.4,12.6,0000.0,0009.44,0004.12,0003.54
2023-02-11 17:31:00,,0825.8,4.98,0.00,23.5,22.3,00.0,32.2,25.4,12.3,0000.0,0009.35,0004.12,0003.53
2023-02-11 17:32:00,,0826.0,4.99,0.00,23.5,22.4,00.0,32.2,25.4,11.7,0000.0,0009.31,0004.08,0003.51
2023-02-11 17:33:00,,0826.0,4.98,0.00,23.5,22.4,00.0,32.2,25.4,11.9,0000.0,0008.94,0004.04,0003.49
2023-02-11 17:34:00,,0825.8,5.01,0.00,23.5,22.4,00.0,32.2,25.4,11.9,0000.0,0008.75,0004.00,0003.48
2023-02-11 17:35:00,,0825.8,5.01,0.00,23.6,22.4,00.0,32.2,25.4,12.0,0000.0,0008.73,0003.99,0003.48
2023-02-11 17:36:00,,0825.7,5.02,0.00,23.6,22.4,00.0,32.3,25.5,11.5,0000.0,0008.62,0003.95,0003.47
2023-02-11 17:37:00,,0825.9,5.03,0.00,23.6,22.4,00.0,32.3,25.5,11.9,0000.0,0009.82,0003.96,0003.48
2023-02-11 17:38:00,,0825.7,4.96,0.00,23.6,22.4,00.0,32.3,25.5,11.8,0000.0,0009.96,0003.98,0003.51
2023-02-11 17:39:00,,0825.6,5.02,0.00,23.6,22.4,00.0,32.3,25.5,11.7,0000.0,0009.57,0003.97,0003.52
2023-02-11 17:40:00,,0825.7,4.99,0.00,23.6,22.4,00.0,32.3,25.5,11.7,0000.0,0009.91,0004.01,0003.56
2023-02-11 17:41:00,,0825.7,5.00,0.00,23.6,22.5,00.0,32.3,25.5,11.8,0000.0,0009.90,0004.05,0003.62
2023-02-11 17:42:00,,0825.7,5.00,0.00,23.6,22.4,00.0,32.3,25.5,11.8,0000.0,0010.35,0004.18,0003.72
2023-02-11 17:43:00,,0825.7,4.99,0.00,23.6,22.5,00.0,32.3,25.5,11.8,0000.0,0010.71,0004.34,0003.84
2023-02-11 17:44:00,,0825.7,5.00,0.00,23.6,22.5,00.0,32.3,25.5,11.9,0000.0,0011.11,0004.50,0003.96
2023-02-11 17:45:00,,0825.6,4.98,0.00,23.7,22.5,00.0,32.4,25.5,11.5,0000.0,0011.68,0004.68,0004.08
2023-02-11 17:46:00,,0825.7,5.01,0.00,23.7,22.5,00.0,32.4,25.5,11.3,0000.0,0011.99,0004.84,0004.19
2023-02-11 17:47:00,,0825.6,5.01,0.00,23.7,22.5,00.0,32.4,25.5,11.1,0000.0,0012.24,0004.97,0004.29
2023-02-11 17:48:00,,0825.6,5.01,0.00,23.7,22.5,00.0,32.4,25.5,11.1,0000.0,0012.19,0005.11,0004.41
2023-02-11 17:49:00,,0825.6,5.00,0.00,23.7,22.5,00.0,32.4,25.5,11.2,0000.0,0011.38,0005.25,0004.53
2023-02-11 17:50:00,,0825.6,4.96,0.00,23.7,22.5,00.0,32.4,25.5,11.2,0000.0,0011.89,0005.47,0004.68
2023-02-11 17:51:00,,0825.6,5.01,0.00,23.7,22.6,00.0,32.4,25.6,11.1,0000.0,0011.85,0005.61,0004.81
2023-02-11 17:52:00,,0825.6,4.97,0.00,23.7,22.6,00.0,32.4,25.6,11.0,0000.0,0012.04,0005.73,0004.91
2023-02-11 17:53:00,,0825.6,4.99,0.00,23.8,22.6,00.0,32.4,25.6,11.0,0000.0,0012.18,0005.77,0004.99
2023-02-11 17:54:00,,0825.6,5.01,0.00,23.8,22.6,00.0,32.5,25.6,10.8,0000.0,0012.39,0005.80,0005.05
2023-02-11 17:55:00,,0825.6,4.92,0.00,23.8,22.6,00.0,32.5,25.6,10.7,0000.0,0012.11,0005.82,0005.09
2023-02-11 17:56:00,,0825.6,5.03,0.00,23.8,22.6,00.0,32.5,25.6,10.8,0000.0,0011.91,0005.89,0005.15
2023-02-11 17:57:00,,0825.6,4.99,0.00,23.8,22.6,00.0,32.5,25.6,11.0,0000.0,0012.93,0005.96,0005.22
2023-02-11 17:58:00,,0825.6,4.99,0.00,23.8,22.6,00.0,32.5,25.7,10.9,0000.0,0013.08,0006.04,0005.28
2023-02-11 17:59:00,,0825.6,5.03,0.00,23.8,22.6,00.0,32.5,25.7,10.7,0000.0,0013.20,0006.18,0005.36
